Regional Weather Roundup
Issued by NWS

Home | Current Version | Previous Version | Text Only | Print | Product List | Glossary On
Versions: 1 2 3 4 5 6 7 8 9 10 11 12 13 14 15 16 17 18 19 20 21 22 23 24 25 26 27 28 29 30 31 32 33 34 35 36 37 38 39 40 41 42 43 44 45 46 47 48 49 50
000
ASUS45 KSLC 290810
RWRUT

UTAH REGIONAL WEATHER ROUNDUP
NATIONAL WEATHER SERVICE SALT LAKE CITY UT
200 AM MDT SUN MAR 29 2015

UTZ001>011-023>025-290900-

NORTHERN UTAH

CITY           SKY/WX    TMP DP  RH WIND       PRES   REMARKS
BRIGHAM CITY   CLEAR     47  17  30 CALM      30.30R
HILL AFB       CLEAR     45  20  36 NW3       30.28R
LOGAN          CLEAR     40  24  53 S7        30.30R
OGDEN          CLEAR     41  25  53 SW3       30.27R
PROVO AIRPORT  CLEAR     52  28  40 NW17      30.26S
SALT LAKE CITY CLEAR     48  23  37 NW10      30.28R
VERNAL         CLEAR     44   7  21 CALM      30.18R
WENDOVER       PTCLDY    48  21  34 N14G21    30.32R
HEBER CITY     CLEAR     32  21  64 CALM      30.28S THUNDER
WEST JORDAN    CLEAR     46  23  39 NW10      30.29R

$$

UTZ012>022-026-027-290900-

SOUTHERN/CENTRAL UTAH

CITY           SKY/WX    TMP DP  RH WIND       PRES   REMARKS
BLANDING       CLEAR     47  23  39 NW7       30.23S
BRYCE CANYON   CLEAR     34  25  69 W6        30.33R WCI  29
CEDAR CITY     CLEAR     44  23  43 S5        30.26R
DELTA          CLEAR     47  19  32 NW6       30.27R
HANKSVILLE     CLEAR     45  21  39 CALM      30.16R
MILFORD        PTCLDY    48  24  39 N12       30.26R
MOAB/CYNLANDS  CLEAR     54  20  26 CALM      30.10R
PRICE          CLEAR     52  21  29 W12       30.22S
ST GEORGE      SUNNY     63  23  22 SE7       30.12R
KANAB          CLEAR     39  27  60 NE6       30.25R WCI  35

$$

REGIONAL REPORTS     COLORADO/ARIZONA

CITY           SKY/WX    TMP DP  RH WIND       PRES   REMARKS
CRAIG, CO      CLEAR     38  19  46 S7        30.22R WCI  33
GRAND JUNCTION MOCLDY    53  22  29 CALM      30.12R
RIFLE          MOCLDY    60  18  19 VRB5      30.16R
MONTROSE       PTCLDY    48  25  40 SE7       30.18S
CORTEZ         CLEAR     37  21  52 E7        30.20R WCI  32
PAGE, AZ       CLEAR     62  21  20 N3        30.14R
GRAND CANYON   CLEAR     30  19  63 CALM      30.31R
KINGMAN        CLEAR     57  22  25 SE8       30.13S
FLAGSTAFF      CLEAR     42  19  39 CALM      30.32S

$$

REGIONAL REPORTS    NEVADA/IDAHO/WYOMING

CITY           SKY/WX    TMP DP  RH WIND       PRES   REMARKS
LAS VEGAS, NV  CLEAR     71  19  14 S9        29.99R
ELY            CLEAR     39  10  30 CALM      30.32R
ELKO           PTCLDY    32  14  47 NW5       30.32R WCI  27
POCATELLO, ID  CLEAR     42  19  39 SW13      30.32S
BURLEY         CLEAR     39  20  46 W3        30.32R
EVANSTON, WY   CLEAR     39  15  37 N9        30.31S WCI  33
ROCK SPRINGS   CLEAR     38  17  42 W16       30.23F WCI  29
KEMMERER       CLEAR     32  19  59 NW5       30.31S WCI  27

$$


USA.gov is the U.S. government's official web portal to all federal, state and local government web resources and services.